Location: Newark
(51.3656°N, 14.2631°E)
Time: 18:52:59
(UTC+00:00)

ISS - Visible Passes

Search period start: 27 February 2021 00:00
Search period end: 09 March 2021 00:00
Orbit: 417 x 422 km, 51.6° (Epoch: 27 February)

Date Brightness Start Highest point End Pass type
(mag) Time Alt. Az. Time Alt. Az. Time Alt. Az.
27 Feb -3.4 03:52:06 50° S 03:52:25 52° SSE 03:55:42 10° E visible
28 Feb -1.6 03:06:31 24° E 03:06:31 24° E 03:08:12 10° E visible
28 Feb -3.8 04:39:28 20° W 04:41:41 88° N 04:45:04 10° E visible
01 Mar -3.9 03:53:50 66° WSW 03:54:14 82° SSE 03:57:36 10° E visible
02 Mar -2.0 03:08:10 32° E 03:08:10 32° E 03:10:08 10° E visible
02 Mar -3.8 04:41:07 17° W 04:43:36 84° N 04:46:59 10° E visible
03 Mar -0.3 02:22:29 11° E 02:22:29 11° E 02:22:39 10° E visible
03 Mar -3.8 03:55:27 55° W 03:56:07 84° N 03:59:29 10° E visible
04 Mar -2.4 03:09:46 39° E 03:09:46 39° E 03:12:00 10° E visible
04 Mar -3.8 04:42:43 15° W 04:45:28 80° SSW 04:48:50 10° ESE visible
05 Mar -0.5 02:24:05 13° E 02:24:05 13° E 02:24:31 10° E visible
05 Mar -3.8 03:57:03 45° W 03:57:59 89° NNE 04:01:21 10° E visible
06 Mar -2.7 03:11:24 46° E 03:11:24 46° E 03:13:52 10° E visible
06 Mar -3.4 04:44:21 13° W 04:47:14 50° SSW 04:50:31 10° SE visible
07 Mar -0.7 02:25:46 14° E 02:25:46 14° E 02:26:21 10° E visible
07 Mar -3.8 03:58:44 39° W 03:59:48 66° SSW 04:03:08 10° ESE visible
08 Mar -2.9 03:13:10 47° ESE 03:13:10 47° ESE 03:15:42 10° ESE visible
08 Mar -2.5 04:46:08 11° W 04:48:52 27° SSW 04:51:46 10° SSE visible
